Location: *
(29.1167°S, 130.0000°E)
Time: 20:21:11
(UTC+00:00)

COSMOS 2487 - Pass Details

Date: 21 July 2019
Orbit: 445 x 450 km, 74.7° (Epoch: 18 August)

Event Time Altitude Azimuth Distance (km) Brightness Sun altitude
Rises 09:02:04 0° 333° (NNW) 2,448 7.0 -4.8°
Reaches altitude 10° 09:04:13 10° 325° (NW) 1,584 6.1 -5.2°
Maximum altitude 09:07:32 42° 253° (WSW) 667 3.8 -5.9°
Drops below altitude 10° 09:10:54 10° 181° (S) 1,606 5.0 -6.6°
Sets 09:13:05 0° 173° (S) 2,487 5.9 -7.0°
